Time,TemperatureF,DewpointF,PressureIn,WindDirection,WindDirectionDegrees,WindSpeedMPH,WindSpeedGustMPH,Humidity,HourlyPrecipIn,Conditions,Clouds,dailyrainin,SoftwareType,DateUTC
2013-07-04 14:03:00,73.5,65.5,29.78,SSW,203,6.0,-999.0,76,0.00,,,0.00,Wunderground v.1.15,2013-07-04 21:03:00,
2013-07-04 14:08:00,74.1,64.9,29.78,SSW,203,5.0,-999.0,73,0.00,,,0.00,Wunderground v.1.15,2013-07-04 21:08:00,
2013-07-04 14:13:00,74.1,64.9,29.78,SSW,203,5.0,-999.0,73,0.00,,,0.00,Wunderground v.1.15,2013-07-04 21:13:00,
2013-07-04 14:18:00,74.0,65.2,29.78,SSW,203,6.0,-999.0,74,0.00,,,0.00,Wunderground v.1.15,2013-07-04 21:18:00,
2013-07-04 14:23:00,74.0,65.2,29.78,SSW,203,6.0,-999.0,74,0.00,,,0.00,Wunderground v.1.15,2013-07-04 21:23:00,
2013-07-04 14:28:00,73.7,64.9,29.77,SW,225,5.0,-999.0,74,0.00,,,0.00,Wunderground v.1.15,2013-07-04 21:28:00,
2013-07-04 14:33:00,73.7,64.9,29.77,SW,225,5.0,-999.0,74,0.00,,,0.00,Wunderground v.1.15,2013-07-04 21:33:00,
2013-07-04 14:38:00,74.0,65.2,29.78,SW,225,5.0,-999.0,74,0.00,,,0.00,Wunderground v.1.15,2013-07-04 21:38:00,
2013-07-04 14:43:00,74.0,65.2,29.78,SW,225,5.0,-999.0,74,0.00,,,0.00,Wunderground v.1.15,2013-07-04 21:43:00,
2013-07-04 14:48:00,73.9,65.1,29.78,SW,225,6.0,-999.0,74,0.00,,,0.00,Wunderground v.1.15,2013-07-04 21:48:00,
2013-07-04 14:53:00,73.9,65.1,29.78,SW,225,6.0,-999.0,74,0.00,,,0.00,Wunderground v.1.15,2013-07-04 21:53:00,
2013-07-04 14:58:00,74.5,65.7,29.77,SW,225,4.0,-999.0,74,0.00,,,0.00,Wunderground v.1.15,2013-07-04 21:58:00,
2013-07-04 15:03:00,74.5,65.7,29.77,SW,225,4.0,-999.0,74,0.00,,,0.00,Wunderground v.1.15,2013-07-04 22:03:00,
2013-07-04 15:08:00,74.5,64.9,29.77,SW,225,6.0,-999.0,72,0.00,,,0.00,Wunderground v.1.15,2013-07-04 22:08:00,
2013-07-04 15:13:00,74.5,64.9,29.77,SW,225,6.0,-999.0,72,0.00,,,0.00,Wunderground v.1.15,2013-07-04 22:13:00,
2013-07-04 15:18:00,74.8,65.2,29.76,SSW,203,5.0,-999.0,72,0.00,,,0.00,Wunderground v.1.15,2013-07-04 22:18:00,
2013-07-04 15:23:00,74.8,65.2,29.76,SSW,203,5.0,-999.0,72,0.00,,,0.00,Wunderground v.1.15,2013-07-04 22:23:00,
2013-07-04 15:28:00,74.8,64.8,29.76,SW,225,6.0,-999.0,71,0.00,,,0.00,Wunderground v.1.15,2013-07-04 22:28:00,
2013-07-04 15:33:00,74.8,64.8,29.76,SW,225,6.0,-999.0,71,0.00,,,0.00,Wunderground v.1.15,2013-07-04 22:33:00,
2013-07-04 15:38:00,74.7,64.7,29.75,SW,225,7.0,-999.0,71,0.00,,,0.00,Wunderground v.1.15,2013-07-04 22:38:00,
2013-07-04 15:43:00,74.7,64.7,29.75,SW,225,7.0,-999.0,71,0.00,,,0.00,Wunderground v.1.15,2013-07-04 22:43:00,
2013-07-04 15:48:00,75.9,65.4,29.76,South,180,5.0,-999.0,70,0.00,,,0.00,Wunderground v.1.15,2013-07-04 22:48:00,
2013-07-04 15:53:00,75.9,65.4,29.76,South,180,5.0,-999.0,70,0.00,,,0.00,Wunderground v.1.15,2013-07-04 22:53:00,
2013-07-04 15:58:00,76.0,65.1,29.75,South,180,5.0,-999.0,69,0.00,,,0.00,Wunderground v.1.15,2013-07-04 22:58:00,
2013-07-04 16:03:00,76.0,65.1,29.75,South,180,5.0,-999.0,69,0.00,,,0.00,Wunderground v.1.15,2013-07-04 23:03:00,
2013-07-04 16:08:00,75.7,65.2,29.75,South,180,5.0,-999.0,70,0.00,,,0.00,Wunderground v.1.15,2013-07-04 23:08:00,
2013-07-04 16:13:00,75.7,65.2,29.75,South,180,5.0,-999.0,70,0.00,,,0.00,Wunderground v.1.15,2013-07-04 23:13:00,
2013-07-04 16:18:00,76.0,65.1,29.75,SW,225,5.0,-999.0,69,0.00,,,0.00,Wunderground v.1.15,2013-07-04 23:18:00,
2013-07-04 16:23:00,76.0,65.1,29.75,SW,225,5.0,-999.0,69,0.00,,,0.00,Wunderground v.1.15,2013-07-04 23:23:00,
2013-07-04 16:28:00,75.3,64.8,29.74,SSW,203,6.0,-999.0,70,0.00,,,0.00,Wunderground v.1.15,2013-07-04 23:28:00,
2013-07-04 16:33:00,75.3,64.8,29.74,SSW,203,6.0,-999.0,70,0.00,,,0.00,Wunderground v.1.15,2013-07-04 23:33:00,
2013-07-04 16:38:00,75.1,64.6,29.74,SW,225,6.0,-999.0,70,0.00,,,0.00,Wunderground v.1.15,2013-07-04 23:38:00,
2013-07-04 16:43:00,75.1,64.6,29.74,SW,225,6.0,-999.0,70,0.00,,,0.00,Wunderground v.1.15,2013-07-04 23:43:00,
2013-07-04 16:48:00,75.6,65.1,29.74,SSW,203,5.0,-999.0,70,0.00,,,0.00,Wunderground v.1.15,2013-07-04 23:48:00,
2013-07-04 16:53:00,75.6,65.1,29.74,SSW,203,5.0,-999.0,70,0.00,,,0.00,Wunderground v.1.15,2013-07-04 23:53:00,
2013-07-04 16:58:00,76.7,64.9,29.74,SSW,203,4.0,-999.0,67,0.00,,,0.00,Wunderground v.1.15,2013-07-04 23:58:00,
2013-07-04 17:03:00,76.7,64.9,29.74,SSW,203,4.0,-999.0,67,0.00,,,0.00,Wunderground v.1.15,2013-07-05 00:03:00,
2013-07-04 17:08:00,77.1,65.7,29.74,SSW,203,4.0,-999.0,68,0.00,,,0.00,Wunderground v.1.15,2013-07-05 00:08:00,
2013-07-04 17:13:00,77.1,65.7,29.74,SSW,203,4.0,-999.0,68,0.00,,,0.00,Wunderground v.1.15,2013-07-05 00:13:00,
2013-07-04 17:18:00,76.4,65.5,29.74,SSW,203,6.0,-999.0,69,0.00,,,0.00,Wunderground v.1.15,2013-07-05 00:18:00,
2013-07-04 17:23:00,76.4,65.5,29.74,SSW,203,6.0,-999.0,69,0.00,,,0.00,Wunderground v.1.15,2013-07-05 00:23:00,
2013-07-04 17:28:00,76.3,65.8,29.74,South,180,4.0,-999.0,70,0.00,,,0.00,Wunderground v.1.15,2013-07-05 00:28:00,
2013-07-04 17:33:00,76.3,65.8,29.74,South,180,4.0,-999.0,70,0.00,,,0.00,Wunderground v.1.15,2013-07-05 00:33:00,
2013-07-04 17:38:00,76.7,64.9,29.74,SSW,203,4.0,-999.0,67,0.00,,,0.00,Wunderground v.1.15,2013-07-05 00:38:00,
2013-07-04 17:43:00,76.7,64.9,29.74,SSW,203,4.0,-999.0,67,0.00,,,0.00,Wunderground v.1.15,2013-07-05 00:43:00,
2013-07-04 17:48:00,76.0,65.1,29.74,SSW,203,5.0,-999.0,69,0.00,,,0.00,Wunderground v.1.15,2013-07-05 00:48:00,
2013-07-04 17:53:00,76.0,65.1,29.74,SSW,203,5.0,-999.0,69,0.00,,,0.00,Wunderground v.1.15,2013-07-05 00:53:00,
2013-07-04 17:58:00,75.7,65.6,29.74,SSW,203,4.0,-999.0,71,0.00,,,0.00,Wunderground v.1.15,2013-07-05 00:58:00,
2013-07-04 18:03:00,75.7,65.6,29.74,SSW,203,4.0,-999.0,71,0.00,,,0.00,Wunderground v.1.15,2013-07-05 01:03:00,
2013-07-04 18:08:00,74.7,65.1,29.74,SSW,203,4.0,-999.0,72,0.00,,,0.00,Wunderground v.1.15,2013-07-05 01:08:00,
2013-07-04 18:13:00,74.7,65.1,29.74,SSW,203,4.0,-999.0,72,0.00,,,0.00,Wunderground v.1.15,2013-07-05 01:13:00,
2013-07-04 18:18:00,74.8,65.2,29.75,South,180,3.0,-999.0,72,0.00,,,0.00,Wunderground v.1.15,2013-07-05 01:18:00,
2013-07-04 18:23:00,74.8,65.2,29.75,South,180,3.0,-999.0,72,0.00,,,0.00,Wunderground v.1.15,2013-07-05 01:23:00,
2013-07-04 18:28:00,74.1,64.9,29.75,SSW,203,5.0,-999.0,73,0.00,,,0.00,Wunderground v.1.15,2013-07-05 01:28:00,
2013-07-04 18:33:00,74.1,64.9,29.75,SSW,203,5.0,-999.0,73,0.00,,,0.00,Wunderground v.1.15,2013-07-05 01:33:00,
2013-07-04 18:38:00,73.4,64.6,29.76,South,180,4.0,-999.0,74,0.00,,,0.00,Wunderground v.1.15,2013-07-05 01:38:00,
2013-07-04 18:43:00,73.4,64.6,29.76,South,180,4.0,-999.0,74,0.00,,,0.00,Wunderground v.1.15,2013-07-05 01:43:00,
2013-07-04 18:48:00,72.2,64.2,29.76,SW,225,5.0,-999.0,76,0.00,,,0.00,Wunderground v.1.15,2013-07-05 01:48:00,
2013-07-04 18:53:00,72.2,64.2,29.76,SW,225,5.0,-999.0,76,0.00,,,0.00,Wunderground v.1.15,2013-07-05 01:53:00,
2013-07-04 18:58:00,71.3,63.7,29.76,SSW,203,6.0,-999.0,77,0.00,,,0.00,Wunderground v.1.15,2013-07-05 01:58:00,
2013-07-04 19:03:00,71.3,63.7,29.76,SSW,203,6.0,-999.0,77,0.00,,,0.00,Wunderground v.1.15,2013-07-05 02:03:00,
2013-07-04 19:08:00,70.8,63.6,29.76,SSW,203,5.0,-999.0,78,0.00,,,0.00,Wunderground v.1.15,2013-07-05 02:08:00,
2013-07-04 19:13:00,70.8,63.6,29.76,SSW,203,5.0,-999.0,78,0.00,,,0.00,Wunderground v.1.15,2013-07-05 02:13:00,
2013-07-04 19:18:00,70.4,63.6,29.76,SSW,203,4.0,-999.0,79,0.00,,,0.00,Wunderground v.1.15,2013-07-05 02:18:00,
2013-07-04 19:23:00,70.4,63.6,29.76,SSW,203,4.0,-999.0,79,0.00,,,0.00,Wunderground v.1.15,2013-07-05 02:23:00,
2013-07-04 19:28:00,69.9,63.4,29.78,SSW,203,4.0,-999.0,80,0.00,,,0.00,Wunderground v.1.15,2013-07-05 02:28:00,
2013-07-04 19:33:00,69.9,63.4,29.78,SSW,203,4.0,-999.0,80,0.00,,,0.00,Wunderground v.1.15,2013-07-05 02:33:00,
2013-07-04 19:38:00,69.1,63.0,29.78,SSW,203,5.0,-999.0,81,0.00,,,0.00,Wunderground v.1.15,2013-07-05 02:38:00,
2013-07-04 19:43:00,69.1,63.0,29.78,SSW,203,5.0,-999.0,81,0.00,,,0.00,Wunderground v.1.15,2013-07-05 02:43:00,
2013-07-04 19:48:00,68.5,62.8,29.78,SSW,203,4.0,-999.0,82,0.00,,,0.00,Wunderground v.1.15,2013-07-05 02:48:00,
2013-07-04 19:53:00,68.5,62.8,29.78,SSW,203,4.0,-999.0,82,0.00,,,0.00,Wunderground v.1.15,2013-07-05 02:53:00,
2013-07-04 19:58:00,68.0,62.3,29.78,SSW,203,4.0,-999.0,82,0.00,,,0.00,Wunderground v.1.15,2013-07-05 02:58:00,
2013-07-04 20:03:00,68.0,62.3,29.78,SSW,203,4.0,-999.0,82,0.00,,,0.00,Wunderground v.1.15,2013-07-05 03:03:00,
2013-07-04 20:08:00,67.4,62.1,29.79,SSW,203,4.0,-999.0,83,0.00,,,0.00,Wunderground v.1.15,2013-07-05 03:08:00,
2013-07-04 20:13:00,67.4,62.1,29.79,SSW,203,4.0,-999.0,83,0.00,,,0.00,Wunderground v.1.15,2013-07-05 03:13:00,
2013-07-04 20:18:00,66.8,61.8,29.79,SSW,203,4.0,-999.0,84,0.00,,,0.00,Wunderground v.1.15,2013-07-05 03:18:00,
2013-07-04 20:23:00,66.8,61.8,29.79,SSW,203,4.0,-999.0,84,0.00,,,0.00,Wunderground v.1.15,2013-07-05 03:23:00,
2013-07-04 20:28:00,66.7,61.7,29.79,SW,225,3.0,-999.0,84,0.00,,,0.00,Wunderground v.1.15,2013-07-05 03:28:00,
2013-07-04 20:33:00,66.7,61.7,29.79,SW,225,3.0,-999.0,84,0.00,,,0.00,Wunderground v.1.15,2013-07-05 03:33:00,
2013-07-04 20:38:00,66.5,61.5,29.80,SW,225,3.0,-999.0,84,0.00,,,0.00,Wunderground v.1.15,2013-07-05 03:38:00,
2013-07-04 20:43:00,66.5,61.5,29.80,SW,225,3.0,-999.0,84,0.00,,,0.00,Wunderground v.1.15,2013-07-05 03:43:00,
2013-07-04 20:48:00,66.2,61.2,29.80,SW,225,3.0,-999.0,84,0.00,,,0.00,Wunderground v.1.15,2013-07-05 03:48:00,
2013-07-04 20:53:00,66.2,61.2,29.80,SW,225,3.0,-999.0,84,0.00,,,0.00,Wunderground v.1.15,2013-07-05 03:53:00,
2013-07-04 20:58:00,66.1,61.5,29.81,WSW,248,3.0,-999.0,85,0.00,,,0.00,Wunderground v.1.15,2013-07-05 03:58:00,
2013-07-04 21:03:00,66.1,61.5,29.81,WSW,248,3.0,-999.0,85,0.00,,,0.00,Wunderground v.1.15,2013-07-05 04:03:00,
2013-07-04 21:08:00,65.9,61.3,29.81,SW,225,3.0,-999.0,85,0.00,,,0.00,Wunderground v.1.15,2013-07-05 04:08:00,
2013-07-04 21:13:00,65.9,61.3,29.81,SW,225,3.0,-999.0,85,0.00,,,0.00,Wunderground v.1.15,2013-07-05 04:13:00,
2013-07-04 21:18:00,65.7,60.7,29.82,SW,225,2.0,-999.0,84,0.00,,,0.00,Wunderground v.1.15,2013-07-05 04:18:00,
2013-07-04 21:23:00,65.7,60.7,29.82,SW,225,2.0,-999.0,84,0.00,,,0.00,Wunderground v.1.15,2013-07-05 04:23:00,
2013-07-04 21:28:00,65.6,61.0,29.82,SSW,203,3.0,-999.0,85,0.00,,,0.00,Wunderground v.1.15,2013-07-05 04:28:00,
2013-07-04 21:33:00,65.6,61.0,29.82,SSW,203,3.0,-999.0,85,0.00,,,0.00,Wunderground v.1.15,2013-07-05 04:33:00,
2013-07-04 21:38:00,65.4,60.8,29.82,SW,225,3.0,-999.0,85,0.00,,,0.00,Wunderground v.1.15,2013-07-05 04:38:00,
2013-07-04 21:43:00,65.4,60.8,29.82,SW,225,3.0,-999.0,85,0.00,,,0.00,Wunderground v.1.15,2013-07-05 04:43:00,
2013-07-04 21:48:00,65.3,60.7,29.82,SW,225,2.0,-999.0,85,0.00,,,0.00,Wunderground v.1.15,2013-07-05 04:48:00,
2013-07-04 21:53:00,65.3,60.7,29.82,SW,225,2.0,-999.0,85,0.00,,,0.00,Wunderground v.1.15,2013-07-05 04:53:00,
2013-07-04 21:58:00,65.2,60.6,29.82,SSW,203,3.0,-999.0,85,0.00,,,0.00,Wunderground v.1.15,2013-07-05 04:58:00,
2013-07-04 22:03:00,65.2,60.6,29.82,SSW,203,3.0,-999.0,85,0.00,,,0.00,Wunderground v.1.15,2013-07-05 05:03:00,
2013-07-04 22:08:00,65.2,60.6,29.82,SSW,203,2.0,-999.0,85,0.00,,,0.00,Wunderground v.1.15,2013-07-05 05:08:00,
2013-07-04 22:13:00,65.2,60.6,29.82,SSW,203,2.0,-999.0,85,0.00,,,0.00,Wunderground v.1.15,2013-07-05 05:13:00,
2013-07-04 22:18:00,65.1,60.5,29.83,SSW,203,1.0,-999.0,85,0.00,,,0.00,Wunderground v.1.15,2013-07-05 05:18:00,
2013-07-04 22:23:00,65.1,60.5,29.83,SSW,203,1.0,-999.0,85,0.00,,,0.00,Wunderground v.1.15,2013-07-05 05:23:00,
2013-07-04 22:28:00,65.1,60.5,29.82,SSW,203,1.0,-999.0,85,0.00,,,0.00,Wunderground v.1.15,2013-07-05 05:28:00,
2013-07-04 22:33:00,65.1,60.5,29.82,SSW,203,1.0,-999.0,85,0.00,,,0.00,Wunderground v.1.15,2013-07-05 05:33:00,
2013-07-04 22:38:00,65.2,60.6,29.82,SSW,203,2.0,-999.0,85,0.00,,,0.00,Wunderground v.1.15,2013-07-05 05:38:00,
2013-07-04 22:43:00,65.2,60.6,29.82,SSW,203,2.0,-999.0,85,0.00,,,0.00,Wunderground v.1.15,2013-07-05 05:43:00,
2013-07-04 22:48:00,65.4,60.8,29.82,SSW,203,1.0,-999.0,85,0.00,,,0.00,Wunderground v.1.15,2013-07-05 05:48:00,
2013-07-04 22:53:00,65.4,60.8,29.82,SSW,203,1.0,-999.0,85,0.00,,,0.00,Wunderground v.1.15,2013-07-05 05:53:00,
2013-07-04 22:58:00,65.5,60.9,29.83,SSW,203,1.0,-999.0,85,0.00,,,0.00,Wunderground v.1.15,2013-07-05 05:58:00,
2013-07-04 23:03:00,65.5,60.9,29.83,SSW,203,1.0,-999.0,85,0.00,,,0.00,Wunderground v.1.15,2013-07-05 06:03:00,
2013-07-04 23:08:00,65.6,61.0,29.82,SSW,203,1.0,-999.0,85,0.00,,,0.00,Wunderground v.1.15,2013-07-05 06:08:00,
2013-07-04 23:13:00,65.6,61.0,29.82,SSW,203,1.0,-999.0,85,0.00,,,0.00,Wunderground v.1.15,2013-07-05 06:13:00,
2013-07-04 23:18:00,65.8,61.2,29.83,SSW,203,1.0,-999.0,85,0.00,,,0.00,Wunderground v.1.15,2013-07-05 06:18:00,
2013-07-04 23:23:00,65.8,61.2,29.83,SSW,203,1.0,-999.0,85,0.00,,,0.00,Wunderground v.1.15,2013-07-05 06:23:00,
2013-07-04 23:28:00,65.8,61.2,29.82,SSW,203,2.0,-999.0,85,0.00,,,0.00,Wunderground v.1.15,2013-07-05 06:28:00,
2013-07-04 23:33:00,65.8,61.2,29.82,SSW,203,2.0,-999.0,85,0.00,,,0.00,Wunderground v.1.15,2013-07-05 06:33:00,
2013-07-04 23:38:00,65.8,61.2,29.82,SSW,203,1.0,-999.0,85,0.00,,,0.00,Wunderground v.1.15,2013-07-05 06:38:00,
2013-07-04 23:43:00,65.8,61.2,29.82,SSW,203,1.0,-999.0,85,0.00,,,0.00,Wunderground v.1.15,2013-07-05 06:43:00,
2013-07-04 23:48:00,65.9,60.9,29.82,SSW,203,1.0,-999.0,84,0.00,,,0.00,Wunderground v.1.15,2013-07-05 06:48:00,
2013-07-04 23:53:00,65.9,60.9,29.82,SSW,203,1.0,-999.0,84,0.00,,,0.00,Wunderground v.1.15,2013-07-05 06:53:00,
2013-07-04 23:58:00,65.9,61.3,29.82,SSW,203,0.0,-999.0,85,0.00,,,0.00,Wunderground v.1.15,2013-07-05 06:58:00,